STARLINK-35963 (66585 NORAD) Tracking and Keplerian Element Data

This shows tracking and keplerian element data for the satellite.

Feedback or suggestion? Click here.




ElementValue
Catalog66585
NameSTARLINK-35963
Epoch Orbit577
Epoch Day354.11984925
Epoch Year2025
RAAN77.9007
Inclination43.0024
Eccentricity0.0003132
Argument of Perigee70.9794
Mean Anonmoly289.1406
Mean Motion15.51655484
Decay Rate0.00129249
L11 66585U 25268AE 25354.11984925 .00129249 00000+0 20907-2 0 9997
L22 66585 43.0024 77.9007 0003132 70.9794 289.1406 15.51655484 5773



Live tracking and technical data element details for STARLINK-35963 (NORAD 66585). STARLINK-35963 can be tracked NOW for your location showing map with azimuth and elevation plus other details from your city location.







IsCatalogInMostPopularTable: catalog: 66585, numindb: 20
Update: records affected: 1



GetName: 66585 STARLINK-35963

Hit Count: updated at: Mon, 20 Apr 2026 09:35:20 GMT